Regional Weather Roundup
Issued by NWS Green Bay, WI

Home | Current Version | Previous Version | Text Only | Print | Product List | Glossary On
Versions: 1 2 3 4 5 6 7 8 9 10 11 12 13 14 15 16 17 18 19 20 21 22 23 24 25 26 27 28 29 30 31 32 33 34 35 36 37 38 39 40 41 42 43 44 45 46 47 48 49 50
000
ASUS43 KGRB 250600
RWRGRB

NORTH-CENTRAL AND NORTHEAST WISCONSIN REGIONAL WEATHER ROUNDUP
NATIONAL WEATHER SERVICE GREEN BAY WI
100 AM CDT WED APR 25 2018

WIZ005-009-010>012-018-019-250700-
NORTH CENTRAL WISCONSIN

CITY           SKY/WX    TMP DP  RH WIND       PRES   REMARKS
IRONWOOD       FAIR      29  27  92 CALM      30.25R
MANITOWISH WTR NOT AVBL
ARBOR VITAE    NOT AVBL
EAGLE RIVER    MOCLDY    33  33 100 N6        30.18R
LAND O LAKES   FAIR      34  33  96 N6        30.21R
RHINELANDER    FAIR      35  33  92 N5        30.18R
PHILLIPS       FAIR      34  30  87 N7        30.20R
ANTIGO         NOT AVBL
TOMAHAWK       NOT AVBL
MERRILL        NOT AVBL
$$

WIZ013-073-250700-
NORTHEAST WISCONSIN

CITY           SKY/WX    TMP DP  RH WIND       PRES   REMARKS
IRON MOUNTAIN  FAIR      35  32  88 NW3       30.15S
MARINETTE      MOCLDY    40  38  93 NW5       30.16S
$$

WIZ017-030-035>037-045-250700-
CENTRAL WISCONSIN

CITY           SKY/WX    TMP DP  RH WIND       PRES   REMARKS
MEDFORD        NOT AVBL
WAUSAU         FAIR      38  37  97 N6        30.15R
MOSINEE        NOT AVBL
MARSHFIELD     FAIR      40  35  83 NE7       30.15S
WISC RAPIDS    CLOUDY    45  37  73 N7        30.16S
STEVENS POINT  NOT AVBL
WAUPACA        FAIR      46  36  67 CALM      30.16R
SHAWANO        CLOUDY    42  38  84 N7        30.15S
CLINTONVILLE   CLOUDY    44  36  73 N6        30.15R
WAUTOMA        CLOUDY    46  32  58 N6        30.15S
$$

WIZ038-039-048-051-250700-
FOX VALLEY

CITY           SKY/WX    TMP DP  RH WIND       PRES   REMARKS
NWS GREEN BAY  CLOUDY    43  35  73 N12       30.14S
APPLETON       NOT AVBL
OSHKOSH        CLOUDY    46  31  55 NE12      30.13S
FOND DU LAC    CLOUDY    46  31  55 NE15      30.13S
$$

WIZ022-050-052-250700-
EAST CENTRAL WISCONSIN

CITY           SKY/WX    TMP DP  RH WIND       PRES   REMARKS
EPHRAIM        NOT AVBL
WASHINGTON ISL NOT AVBL
STURGEON BAY   LGT RAIN  39  36  89 N14       30.14F
MANITOWOC      CLOUDY    44  34  67 N10G18    30.13S
SHEBOYGAN      CLOUDY    44  34  67 NE15G21   30.12R
$$

LMZ563-521-522-541>543-250700-
LAKESHORE

STATION/POSITION TIME  TEMP    WIND        PRES    VSBY  WAVE
                       AIR SEA DIR/SP/G                  HT/PER
                 (UTC) (F)     (DEG/KT/KT) (MB)    (MI)  (FT/S)
SHEBOYGAN LKSHOR 0500   41      10/ 20/ 22 1020.2R
KEWAUNEE LKSHORE 0524   45      10/  9/ 20 1020.0
NORTHPORT PIER   0540   38                 1020.7R
SISTER BAY LKSHO 0512   40      10/ 12/ 18   N/A
MENOMINEE LKSHOR 0524   36      10/  7/  8 1020.8
$$




USA.gov is the U.S. government's official web portal to all federal, state and local government web resources and services.